| time (UTC) | temp C | wind direction | speed KPH | gust KPH | rain 1hr cm | rain 24hr cm | rain mn cm | humidity % | barometer mb |
| 20260509093303 | 20 | 316 | 0.0 | 3.2 | 0.00 | 0.00 | 0.00 | 59 | 1017.6 |
| 20260509092804 | 20 | 305 | 0.0 | 3.2 | 0.00 | 0.00 | 0.00 | 56 | 1017.6 |
| 20260509092305 | 20 | 298 | 1.6 | 8.0 | 0.00 | 0.00 | 0.00 | 58 | 1017.6 |
| 20260509091803 | 20 | 115 | 3.2 | 8.0 | 0.00 | 0.00 | 0.00 | 56 | 1017.6 |
| 20260509091303 | 20 | 119 | 3.2 | 8.0 | 0.00 | 0.00 | 0.00 | 53 | 1017.6 |
| 20260509090803 | 20 | 259 | 1.6 | 8.0 | 0.00 | 0.00 | 0.00 | 54 | 1017.6 |
| 20260509090304 | 20 | 71 | 1.6 | 3.2 | 0.00 | 0.00 | 0.00 | 58 | 1017.6 |
| 20260509085803 | 20 | 60 | 1.6 | 8.0 | 0.00 | 0.00 | 0.00 | 54 | 1017.6 |
| 20260509085306 | 20 | 136 | 1.6 | 3.2 | 0.00 | 0.00 | 0.00 | 53 | 1017.6 |
| 20260509084804 | 20 | 101 | 0.0 | 3.2 | 0.00 | 0.00 | 0.00 | 55 | 1017.6 |
| 20260509084303 | 20 | 120 | 0.0 | 4.8 | 0.00 | 0.00 | 0.00 | 56 | 1017.6 |
| 20260509083804 | 19 | 119 | 0.0 | 4.8 | 0.00 | 0.00 | 0.00 | 62 | 1017.7 |
| 20260509082306 | 18 | 108 | 1.6 | 4.8 | 0.00 | 0.00 | 0.00 | 63 | 1017.8 |
| 20260509081803 | 18 | 91 | 1.6 | 8.0 | 0.00 | 0.00 | 0.00 | 67 | 1017.8 |
| 20260509081303 | 18 | 100 | 1.6 | 3.2 | 0.00 | 0.00 | 0.00 | 66 | 1018.0 |
| 20260509080804 | 17 | 101 | 0.0 | 8.0 | 0.00 | 0.00 | 0.00 | 68 | 1018.0 |
| 20260509080303 | 17 | 178 | 1.6 | 4.8 | 0.00 | 0.00 | 0.00 | 67 | 1018.0 |
| 20260509075804 | 17 | 179 | 1.6 | 4.8 | 0.00 | 0.00 | 0.00 | 67 | 1018.0 |
| 20260509075306 | 17 | 94 | 1.6 | 8.0 | 0.00 | 0.00 | 0.00 | 69 | 1018.0 |
| 20260509074803 | 17 | 27 | 1.6 | 3.2 | 0.00 | 0.00 | 0.00 | 68 | 1018.0 |
| 20260509074304 | 17 | 10 | 1.6 | 4.8 | 0.00 | 0.00 | 0.00 | 71 | 1017.9 |
| 20260509073804 | 16 | 17 | 1.6 | 4.8 | 0.00 | 0.00 | 0.00 | 72 | 1018.0 |
| 20260509073304 | 16 | 116 | 1.6 | 3.2 | 0.00 | 0.00 | 0.00 | 71 | 1018.0 |
| 20260509072803 | 16 | 116 | 1.6 | 3.2 | 0.00 | 0.00 | 0.00 | 73 | 1018.0 |
| 20260509072306 | 15 | 116 | 1.6 | 4.8 | 0.00 | 0.00 | 0.00 | 74 | 1018.0 |
| 20260509071304 | 15 | 86 | 0.0 | 1.6 | 0.00 | 0.00 | 0.00 | 77 | 1018.0 |
| 20260509070803 | 14 | 86 | 0.0 | 1.6 | 0.00 | 0.00 | 0.00 | 79 | 1018.0 |
| 20260509070303 | 13 | 86 | 1.6 | 4.8 | 0.00 | 0.00 | 0.00 | 80 | 1018.0 |
| 20260509065803 | 13 | 109 | 0.0 | 3.2 | 0.00 | 0.00 | 0.00 | 84 | 1018.0 |
| 20260509065306 | 12 | 109 | 1.6 | 3.2 | 0.00 | 0.00 | 0.00 | 82 | 1018.0 |
| 20260509064804 | 12 | 109 | 1.6 | 3.2 | 0.00 | 0.00 | 0.00 | 81 | 1018.0 |
| 20260509064304 | 12 | 92 | 1.6 | 4.8 | 0.00 | 0.00 | 0.00 | 86 | 1018.0 |
| 20260509063304 | 11 | 66 | 0.0 | 1.6 | 0.00 | 0.00 | 0.00 | 88 | 1018.0 |
| 20260509062804 | 11 | 66 | 0.0 | 3.2 | 0.00 | 0.00 | 0.00 | 88 | 1018.0 |
| 20260509062306 | 11 | 66 | 0.0 | 3.2 | 0.00 | 0.00 | 0.00 | 89 | 1018.0 |
| 20260509061804 | 11 | 66 | 1.6 | 3.2 | 0.00 | 0.00 | 0.00 | 89 | 1018.0 |
| 20260509060803 | 11 | 66 | 0.0 | 3.2 | 0.00 | 0.00 | 0.00 | 89 | 1018.0 |
| 20260509060303 | 10 | 66 | 0.0 | 1.6 | 0.00 | 0.00 | 0.00 | 90 | 1018.0 |
| 20260509055804 | 10 | 66 | 1.6 | 3.2 | 0.00 | 0.00 | 0.00 | 90 | 1018.0 |
| 20260509055306 | 10 | 66 | 0.0 | 1.6 | 0.00 | 0.00 | 0.00 | 92 | 1018.0 |
| 20260509054803 | 10 | 66 | 0.0 | 3.2 | 0.00 | 0.00 | 0.00 | 92 | 1018.0 |
| 20260509054304 | 10 | 66 | 0.0 | 1.6 | 0.00 | 0.00 | 0.00 | 92 | 1018.0 |
| 20260509053303 | 10 | 66 | 0.0 | 0.0 | 0.00 | 0.00 | 0.00 | 94 | 1018.0 |
| 20260509052804 | 9 | 66 | 0.0 | 0.0 | 0.00 | 0.00 | 0.00 | 95 | 1018.0 |
| 20260509051803 | 8 | 66 | 0.0 | 0.0 | 0.00 | 0.00 | 0.00 | 96 | 1018.0 |
| 20260509051304 | 8 | 66 | 0.0 | 1.6 | 0.00 | 0.00 | 0.00 | 95 | 1018.0 |
| 20260509050803 | 8 | 66 | 0.0 | 0.0 | 0.00 | 0.00 | 0.00 | 96 | 1017.9 |
| 20260509045803 | 8 | 66 | 0.0 | 0.0 | 0.00 | 0.00 | 0.00 | 98 | 1017.9 |
| 20260509045306 | 8 | 66 | 0.0 | 1.6 | 0.00 | 0.00 | 0.00 | 98 | 1017.8 |
| 20260509044804 | 7 | 66 | 0.0 | 1.6 | 0.00 | 0.00 | 0.00 | 100 | 1017.8 |
| 20260509044304 | 7 | 66 | 0.0 | 0.0 | 0.00 | 0.00 | 0.00 | 100 | 1017.8 |
| 20260509043804 | 7 | 66 | 0.0 | 0.0 | 0.00 | 0.00 | 0.00 | 100 | 1017.8 |
| 20260509043304 | 7 | 66 | 0.0 | 0.0 | 0.00 | 0.00 | 0.00 | 100 | 1017.8 |
| 20260509042803 | 7 | 66 | 0.0 | 0.0 | 0.00 | 0.00 | 0.00 | 100 | 1017.8 |
| 20260509042306 | 7 | 66 | 0.0 | 0.0 | 0.00 | 0.00 | 0.00 | 100 | 1017.8 |
| 20260509041804 | 7 | 66 | 0.0 | 0.0 | 0.00 | 0.00 | 0.00 | 100 | 1017.8 |
| 20260509041303 | 7 | 66 | 0.0 | 0.0 | 0.00 | 0.00 | 0.00 | 100 | 1017.8 |
| 20260509040804 | 7 | 66 | 0.0 | 0.0 | 0.00 | 0.00 | 0.00 | 100 | 1017.9 |
| 20260509035803 | 7 | 66 | 0.0 | 0.0 | 0.00 | 0.00 | 0.00 | 100 | 1017.7 |
| 20260509035306 | 6 | 66 | 0.0 | 0.0 | 0.00 | 0.00 | 0.00 | 100 | 1017.7 |
| 20260509034804 | 6 | 66 | 0.0 | 0.0 | 0.00 | 0.00 | 0.00 | 100 | 1017.7 |
| 20260509034304 | 6 | 66 | 0.0 | 0.0 | 0.00 | 0.00 | 0.00 | 100 | 1017.7 |
| 20260509033304 | 6 | 66 | 0.0 | 0.0 | 0.00 | 0.00 | 0.00 | 100 | 1017.7 |
| 20260509032804 | 6 | 66 | 0.0 | 0.0 | 0.00 | 0.00 | 0.00 | 100 | 1017.7 |
| 20260509032306 | 6 | 66 | 0.0 | 0.0 | 0.00 | 0.00 | 0.00 | 100 | 1017.7 |
| 20260509031803 | 6 | 66 | 0.0 | 0.0 | 0.00 | 0.00 | 0.00 | 100 | 1017.7 |
| 20260509031303 | 6 | 66 | 0.0 | 0.0 | 0.00 | 0.00 | 0.00 | 100 | 1017.7 |
| 20260509025804 | 6 | 66 | 0.0 | 0.0 | 0.00 | 0.00 | 0.00 | 99 | 1017.7 |
| 20260509025306 | 6 | 66 | 0.0 | 0.0 | 0.00 | 0.00 | 0.00 | 99 | 1017.7 |
| 20260509024804 | 6 | 66 | 0.0 | 0.0 | 0.00 | 0.00 | 0.00 | 99 | 1017.7 |
| 20260509024303 | 6 | 66 | 0.0 | 0.0 | 0.00 | 0.00 | 0.00 | 99 | 1017.6 |
| 20260509023303 | 6 | 66 | 0.0 | 0.0 | 0.00 | 0.00 | 0.00 | 100 | 1017.7 |
| 20260509022804 | 6 | 66 | 0.0 | 0.0 | 0.00 | 0.00 | 0.00 | 99 | 1017.7 |
| 20260509022306 | 6 | 66 | 0.0 | 0.0 | 0.00 | 0.00 | 0.00 | 99 | 1017.7 |
| 20260509021803 | 6 | 66 | 0.0 | 0.0 | 0.00 | 0.00 | 0.00 | 99 | 1017.7 |
| 20260509021303 | 6 | 66 | 0.0 | 0.0 | 0.00 | 0.00 | 0.00 | 99 | 1017.7 |
| 20260509020803 | 6 | 66 | 0.0 | 0.0 | 0.00 | 0.00 | 0.00 | 99 | 1017.7 |
| 20260509020304 | 6 | 66 | 0.0 | 0.0 | 0.00 | 0.00 | 0.00 | 99 | 1017.7 |
| 20260509015803 | 6 | 66 | 0.0 | 0.0 | 0.00 | 0.00 | 0.00 | 99 | 1017.7 |
| 20260509015319 | 6 | 66 | 0.0 | 0.0 | 0.00 | 0.00 | 0.00 | 98 | 1017.7 |
| 20260509014803 | 6 | 66 | 0.0 | 0.0 | 0.00 | 0.00 | 0.00 | 98 | 1017.7 |
| 20260509014304 | 6 | 66 | 0.0 | 0.0 | 0.00 | 0.00 | 0.00 | 98 | 1017.7 |
| 20260509013304 | 7 | 66 | 0.0 | 0.0 | 0.00 | 0.00 | 0.00 | 99 | 1017.7 |
| 20260509012804 | 7 | 66 | 0.0 | 0.0 | 0.00 | 0.00 | 0.00 | 98 | 1017.7 |
| 20260509012307 | 7 | 66 | 0.0 | 0.0 | 0.00 | 0.00 | 0.00 | 98 | 1017.7 |
| 20260509011803 | 7 | 66 | 0.0 | 0.0 | 0.00 | 0.00 | 0.00 | 98 | 1017.7 |
| 20260509010304 | 7 | 66 | 0.0 | 0.0 | 0.00 | 0.00 | 0.00 | 97 | 1017.6 |
| 20260509005803 | 7 | 66 | 0.0 | 0.0 | 0.00 | 0.00 | 0.00 | 97 | 1017.5 |
| 20260509005306 | 7 | 66 | 0.0 | 0.0 | 0.00 | 0.00 | 0.00 | 97 | 1017.5 |
| 20260509004803 | 7 | 66 | 0.0 | 0.0 | 0.00 | 0.00 | 0.00 | 97 | 1017.5 |
| 20260509003803 | 7 | 66 | 0.0 | 0.0 | 0.00 | 0.00 | 0.00 | 97 | 1017.5 |
| 20260509003303 | 7 | 66 | 0.0 | 0.0 | 0.00 | 0.00 | 0.00 | 97 | 1017.6 |
| 20260509002803 | 7 | 66 | 0.0 | 0.0 | 0.00 | 0.00 | 0.00 | 96 | 1017.6 |
| 20260509002306 | 7 | 66 | 0.0 | 0.0 | 0.00 | 0.00 | 0.00 | 96 | 1017.6 |
| 20260509001804 | 7 | 66 | 0.0 | 0.0 | 0.00 | 0.00 | 0.00 | 96 | 1017.6 |
| 20260509001304 | 7 | 66 | 0.0 | 0.0 | 0.00 | 0.00 | 0.00 | 96 | 1017.6 |
| 20260509000819 | 7 | 66 | 0.0 | 0.0 | 0.00 | 0.00 | 0.00 | 95 | 1017.7 |
| 20260509000303 | 8 | 66 | 0.0 | 0.0 | 0.00 | 0.00 | 0.00 | 95 | 1017.7 |
| 20260508235803 | 8 | 66 | 0.0 | 0.0 | 0.00 | 0.00 | 0.00 | 94 | 1017.7 |
| 20260508235306 | 8 | 66 | 0.0 | 0.0 | 0.00 | 0.00 | 0.00 | 94 | 1017.8 |
| 20260508234803 | 8 | 66 | 0.0 | 0.0 | 0.00 | 0.00 | 0.00 | 93 | 1017.7 |
| 20260508233304 | 8 | 66 | 0.0 | 0.0 | 0.00 | 0.00 | 0.00 | 93 | 1017.6 |
| 20260508232803 | 9 | 66 | 0.0 | 0.0 | 0.00 | 0.00 | 0.00 | 93 | 1017.6 |
| 20260508232306 | 9 | 66 | 0.0 | 1.6 | 0.00 | 0.00 | 0.00 | 93 | 1017.6 |
| 20260508231804 | 9 | 66 | 0.0 | 0.0 | 0.00 | 0.00 | 0.00 | 93 | 1017.6 |
| 20260508230804 | 9 | 66 | 0.0 | 1.6 | 0.00 | 0.03 | 0.00 | 93 | 1017.6 |
| 20260508230303 | 9 | 66 | 0.0 | 1.6 | 0.00 | 0.03 | 0.00 | 93 | 1017.6 |
| 20260508225803 | 9 | 66 | 0.0 | 1.6 | 0.00 | 0.03 | 0.00 | 93 | 1017.6 |
| 20260508225306 | 9 | 66 | 0.0 | 0.0 | 0.00 | 0.03 | 0.00 | 93 | 1017.6 |
| 20260508224804 | 9 | 66 | 0.0 | 0.0 | 0.00 | 0.03 | 0.00 | 93 | 1017.6 |
| 20260508224304 | 9 | 66 | 0.0 | 0.0 | 0.00 | 0.03 | 0.00 | 92 | 1017.6 |
| 20260508223803 | 9 | 66 | 0.0 | 0.0 | 0.00 | 0.03 | 0.00 | 92 | 1017.6 |
| 20260508222306 | 10 | 66 | 0.0 | 0.0 | 0.00 | 0.03 | 0.00 | 91 | 1017.5 |
| 20260508221803 | 10 | 66 | 0.0 | 0.0 | 0.00 | 0.03 | 0.00 | 91 | 1017.5 |
| 20260508221304 | 10 | 66 | 0.0 | 0.0 | 0.00 | 0.03 | 0.00 | 90 | 1017.5 |
| 20260508220303 | 10 | 66 | 0.0 | 0.0 | 0.00 | 0.03 | 0.00 | 90 | 1017.5 |
| 20260508215803 | 10 | 66 | 0.0 | 0.0 | 0.00 | 0.03 | 0.03 | 89 | 1017.5 |
| 20260508215306 | 10 | 66 | 0.0 | 0.0 | 0.00 | 0.03 | 0.03 | 89 | 1017.5 |
| 20260508214803 | 10 | 66 | 0.0 | 0.0 | 0.00 | 0.03 | 0.03 | 88 | 1017.5 |
| 20260508214304 | 10 | 66 | 0.0 | 1.6 | 0.00 | 0.03 | 0.03 | 88 | 1017.5 |
| 20260508213804 | 10 | 66 | 0.0 | 1.6 | 0.00 | 0.03 | 0.03 | 88 | 1017.4 |
| 20260508212803 | 11 | 66 | 0.0 | 1.6 | 0.00 | 0.03 | 0.03 | 88 | 1017.4 |
| 20260508212306 | 11 | 66 | 0.0 | 1.6 | 0.00 | 0.03 | 0.03 | 89 | 1017.4 |
| 20260508211804 | 11 | 66 | 0.0 | 0.0 | 0.00 | 0.03 | 0.03 | 88 | 1017.4 |
| 20260508211304 | 11 | 66 | 0.0 | 1.6 | 0.00 | 0.03 | 0.03 | 88 | 1017.4 |
| 20260508210303 | 11 | 66 | 0.0 | 1.6 | 0.00 | 0.03 | 0.03 | 88 | 1017.3 |
| 20260508205319 | 11 | 66 | 0.0 | 0.0 | 0.00 | 0.03 | 0.03 | 86 | 1017.1 |
| 20260508204803 | 11 | 66 | 0.0 | 0.0 | 0.00 | 0.03 | 0.03 | 86 | 1017.1 |
| 20260508204303 | 11 | 66 | 0.0 | 0.0 | 0.00 | 0.03 | 0.03 | 85 | 1017.1 |
| 20260508203804 | 12 | 66 | 0.0 | 1.6 | 0.00 | 0.03 | 0.03 | 84 | 1017.1 |
| 20260508203304 | 12 | 66 | 0.0 | 0.0 | 0.00 | 0.03 | 0.03 | 83 | 1017.1 |
| 20260508201303 | 13 | 66 | 0.0 | 1.6 | 0.00 | 0.03 | 0.03 | 79 | 1017.0 |
| 20260508200804 | 13 | 66 | 0.0 | 0.0 | 0.00 | 0.03 | 0.03 | 77 | 1017.0 |
| 20260508200304 | 13 | 66 | 0.0 | 1.6 | 0.00 | 0.03 | 0.03 | 77 | 1016.7 |
| 20260508195804 | 13 | 66 | 0.0 | 1.6 | 0.00 | 0.03 | 0.03 | 78 | 1016.7 |
| 20260508195306 | 13 | 66 | 0.0 | 0.0 | 0.00 | 0.03 | 0.03 | 76 | 1016.7 |
| 20260508194803 | 13 | 66 | 0.0 | 0.0 | 0.00 | 0.03 | 0.03 | 76 | 1016.7 |
| 20260508193804 | 14 | 66 | 0.0 | 1.6 | 0.00 | 0.03 | 0.03 | 74 | 1015.9 |
| 20260508193304 | 15 | 66 | 0.0 | 1.6 | 0.00 | 0.03 | 0.03 | 72 | 1015.9 |
| 20260508192804 | 15 | 66 | 0.0 | 0.0 | 0.00 | 0.03 | 0.03 | 71 | 1015.9 |
| 20260508192306 | 15 | 66 | 0.0 | 1.6 | 0.00 | 0.03 | 0.03 | 70 | 1015.9 |
| 20260508191803 | 15 | 66 | 0.0 | 1.6 | 0.00 | 0.03 | 0.03 | 69 | 1015.9 |
| 20260508191303 | 15 | 66 | 0.0 | 4.8 | 0.00 | 0.03 | 0.03 | 68 | 1015.9 |
| 20260508190804 | 16 | 15 | 1.6 | 8.0 | 0.00 | 0.03 | 0.03 | 68 | 1015.9 |
| 20260508190304 | 16 | 1 | 1.6 | 4.8 | 0.00 | 0.03 | 0.03 | 67 | 1015.9 |
| 20260508185306 | 16 | 9 | 1.6 | 4.8 | 0.00 | 0.03 | 0.03 | 67 | 1015.9 |
| 20260508184804 | 16 | 16 | 1.6 | 8.0 | 0.00 | 0.03 | 0.03 | 67 | 1015.9 |
| 20260508184304 | 16 | 24 | 1.6 | 8.0 | 0.00 | 0.03 | 0.03 | 67 | 1015.5 |
| 20260508183303 | 16 | 335 | 1.6 | 8.0 | 0.00 | 0.03 | 0.03 | 66 | 1015.5 |
| 20260508182804 | 17 | 75 | 1.6 | 4.8 | 0.00 | 0.03 | 0.03 | 67 | 1015.5 |
| 20260508182306 | 17 | 65 | 1.6 | 8.0 | 0.00 | 0.03 | 0.03 | 66 | 1015.5 |
| 20260508181304 | 17 | 29 | 0.0 | 3.2 | 0.00 | 0.03 | 0.03 | 66 | 1015.3 |
| 20260508180304 | 17 | 77 | 1.6 | 8.0 | 0.00 | 0.03 | 0.03 | 64 | 1015.3 |
| 20260508175306 | 17 | 58 | 3.2 | 12.9 | 0.00 | 0.03 | 0.03 | 64 | 1015.3 |
| 20260508174804 | 18 | 120 | 1.6 | 8.0 | 0.00 | 0.03 | 0.03 | 63 | 1015.1 |
| 20260508174303 | 18 | 13 | 1.6 | 8.0 | 0.00 | 0.03 | 0.03 | 62 | 1015.1 |
| 20260508173803 | 18 | 53 | 3.2 | 8.0 | 0.00 | 0.03 | 0.03 | 62 | 1015.1 |
| 20260508173303 | 18 | 21 | 3.2 | 9.7 | 0.00 | 0.03 | 0.03 | 61 | 1015.1 |
| 20260508172307 | 18 | 21 | 3.2 | 11.3 | 0.00 | 0.03 | 0.03 | 60 | 1015.1 |
| 20260508171804 | 19 | 74 | 3.2 | 9.7 | 0.00 | 0.03 | 0.03 | 59 | 1015.1 |
| 20260508171304 | 19 | 26 | 3.2 | 8.0 | 0.00 | 0.03 | 0.03 | 59 | 1015.0 |
| 20260508165803 | 20 | 89 | 3.2 | 8.0 | 0.00 | 0.03 | 0.03 | 57 | 1014.7 |
| 20260508165306 | 20 | 101 | 3.2 | 8.0 | 0.00 | 0.03 | 0.03 | 57 | 1014.7 |
| 20260508164803 | 20 | 59 | 4.8 | 9.7 | 0.00 | 0.03 | 0.03 | 56 | 1014.7 |
| 20260508164303 | 21 | 75 | 3.2 | 8.0 | 0.00 | 0.03 | 0.03 | 55 | 1014.7 |
| 20260508163804 | 21 | 80 | 3.2 | 8.0 | 0.00 | 0.03 | 0.03 | 54 | 1014.7 |
| 20260508163304 | 21 | 87 | 1.6 | 8.0 | 0.00 | 0.03 | 0.03 | 57 | 1014.7 |
| 20260508162306 | 21 | 76 | 4.8 | 8.0 | 0.00 | 0.03 | 0.03 | 54 | 1014.7 |
| 20260508161804 | 21 | 85 | 3.2 | 8.0 | 0.00 | 0.03 | 0.03 | 54 | 1014.7 |
| 20260508161303 | 21 | 2 | 4.8 | 12.9 | 0.00 | 0.03 | 0.03 | 54 | 1014.8 |
| 20260508155804 | 21 | 216 | 3.2 | 8.0 | 0.00 | 0.03 | 0.03 | 52 | 1014.8 |
| 20260508155306 | 21 | 30 | 1.6 | 8.0 | 0.00 | 0.03 | 0.03 | 50 | 1014.8 |
| 20260508154804 | 21 | 114 | 1.6 | 3.2 | 0.00 | 0.03 | 0.03 | 52 | 1014.8 |
| 20260508154304 | 20 | 67 | 3.2 | 8.0 | 0.00 | 0.03 | 0.03 | 54 | 1014.8 |
| 20260508153804 | 20 | 52 | 1.6 | 8.0 | 0.00 | 0.03 | 0.03 | 55 | 1014.8 |
| 20260508153304 | 20 | 85 | 3.2 | 8.0 | 0.00 | 0.03 | 0.03 | 56 | 1015.0 |
| 20260508152306 | 21 | 75 | 3.2 | 12.9 | 0.00 | 0.03 | 0.03 | 53 | 1015.0 |
| 20260508151804 | 21 | 112 | 1.6 | 4.8 | 0.00 | 0.03 | 0.03 | 51 | 1015.0 |
| 20260508151304 | 22 | 78 | 1.6 | 4.8 | 0.00 | 0.03 | 0.03 | 49 | 1015.0 |
| 20260508150804 | 22 | 66 | 1.6 | 4.8 | 0.00 | 0.03 | 0.03 | 51 | 1015.0 |
| 20260508150304 | 22 | 86 | 3.2 | 8.0 | 0.00 | 0.03 | 0.03 | 48 | 1015.0 |
| 20260508145804 | 22 | 134 | 1.6 | 8.0 | 0.00 | 0.03 | 0.03 | 49 | 1015.0 |
| 20260508145306 | 22 | 8 | 3.2 | 8.0 | 0.00 | 0.03 | 0.03 | 48 | 1015.1 |
| 20260508144803 | 22 | 54 | 3.2 | 8.0 | 0.00 | 0.03 | 0.03 | 49 | 1015.2 |
| 20260508144304 | 22 | 78 | 3.2 | 8.0 | 0.00 | 0.03 | 0.03 | 51 | 1015.2 |
| 20260508143804 | 22 | 81 | 3.2 | 8.0 | 0.00 | 0.03 | 0.03 | 48 | 1015.3 |
| 20260508143303 | 22 | 89 | 3.2 | 11.3 | 0.00 | 0.03 | 0.03 | 49 | 1015.3 |
| 20260508142804 | 22 | 31 | 3.2 | 9.7 | 0.00 | 0.03 | 0.03 | 47 | 1015.3 |
| 20260508142306 | 22 | 288 | 3.2 | 9.7 | 0.00 | 0.03 | 0.03 | 49 | 1015.3 |
| 20260508141804 | 22 | 69 | 1.6 | 4.8 | 0.00 | 0.03 | 0.03 | 48 | 1015.5 |
| 20260508141303 | 21 | 186 | 0.0 | 1.6 | 0.00 | 0.03 | 0.03 | 54 | 1015.5 |
| 20260508140804 | 21 | 180 | 1.6 | 8.0 | 0.00 | 0.03 | 0.03 | 50 | 1015.5 |
| 20260508140304 | 22 | 148 | 1.6 | 9.7 | 0.00 | 0.03 | 0.03 | 54 | 1015.6 |
| 20260508135803 | 21 | 140 | 3.2 | 8.0 | 0.00 | 0.03 | 0.03 | 50 | 1015.6 |
| 20260508135306 | 22 | 0 | 1.6 | 4.8 | 0.00 | 0.03 | 0.03 | 48 | 1015.6 |
| 20260508134803 | 22 | 93 | 1.6 | 8.0 | 0.00 | 0.03 | 0.03 | 54 | 1015.9 |
| 20260508134304 | 21 | 113 | 1.6 | 4.8 | 0.00 | 0.03 | 0.03 | 54 | 1015.9 |
| 20260508133304 | 21 | 58 | 1.6 | 4.8 | 0.00 | 0.03 | 0.03 | 51 | 1015.9 |
| 20260508132804 | 21 | 60 | 1.6 | 4.8 | 0.00 | 0.03 | 0.03 | 53 | 1015.9 |
| 20260508132306 | 20 | 53 | 1.6 | 4.8 | 0.00 | 0.03 | 0.03 | 56 | 1015.9 |
| 20260508131805 | 20 | 78 | 1.6 | 4.8 | 0.00 | 0.03 | 0.03 | 54 | 1015.9 |
| 20260508131304 | 20 | 103 | 0.0 | 1.6 | 0.00 | 0.03 | 0.03 | 54 | 1016.0 |
| 20260508130304 | 19 | 103 | 0.0 | 1.6 | 0.00 | 0.03 | 0.03 | 58 | 1016.1 |
| 20260508125306 | 20 | 105 | 1.6 | 9.7 | 0.00 | 0.03 | 0.03 | 56 | 1016.1 |
| 20260508124803 | 20 | 169 | 1.6 | 8.0 | 0.00 | 0.03 | 0.03 | 55 | 1016.1 |
| 20260508124304 | 21 | 292 | 1.6 | 4.8 | 0.00 | 0.03 | 0.03 | 54 | 1016.1 |
| 20260508123804 | 20 | 306 | 3.2 | 8.0 | 0.00 | 0.03 | 0.03 | 55 | 1016.3 |
| 20260508123303 | 20 | 48 | 1.6 | 4.8 | 0.00 | 0.03 | 0.03 | 56 | 1016.3 |
| 20260508122306 | 20 | 299 | 3.2 | 8.0 | 0.00 | 0.03 | 0.03 | 56 | 1016.3 |
| 20260508120803 | 19 | 65 | 1.6 | 8.0 | 0.00 | 0.03 | 0.03 | 55 | 1016.3 |
| 20260508120304 | 19 | 23 | 1.6 | 8.0 | 0.00 | 0.03 | 0.03 | 58 | 1016.3 |
| 20260508115804 | 19 | 92 | 1.6 | 9.7 | 0.00 | 0.03 | 0.03 | 57 | 1016.3 |
| 20260508115306 | 20 | 26 | 4.8 | 8.0 | 0.00 | 0.03 | 0.03 | 55 | 1016.3 |
| 20260508114804 | 21 | 300 | 3.2 | 9.7 | 0.00 | 0.03 | 0.03 | 56 | 1016.4 |
| 20260508114303 | 21 | 254 | 3.2 | 8.0 | 0.00 | 0.03 | 0.03 | 52 | 1016.5 |
| 20260508113804 | 21 | 54 | 1.6 | 8.0 | 0.00 | 0.03 | 0.03 | 50 | 1016.5 |
| 20260508113304 | 21 | 222 | 1.6 | 4.8 | 0.00 | 0.03 | 0.03 | 52 | 1016.6 |
| 20260508112804 | 21 | 126 | 1.6 | 4.8 | 0.00 | 0.03 | 0.03 | 57 | 1016.6 |
| 20260508112306 | 21 | 105 | 1.6 | 8.0 | 0.00 | 0.03 | 0.03 | 55 | 1016.6 |
| 20260508111803 | 21 | 115 | 3.2 | 4.8 | 0.00 | 0.03 | 0.03 | 56 | 1016.7 |
| 20260508111304 | 20 | 97 | 1.6 | 3.2 | 0.00 | 0.03 | 0.03 | 56 | 1016.7 |
| 20260508110303 | 20 | 63 | 1.6 | 8.0 | 0.00 | 0.03 | 0.03 | 57 | 1016.7 |
| 20260508105804 | 18 | 96 | 1.6 | 3.2 | 0.00 | 0.03 | 0.03 | 61 | 1016.7 |
| 20260508105306 | 19 | 293 | 1.6 | 3.2 | 0.00 | 0.03 | 0.03 | 61 | 1017.1 |
| 20260508104804 | 19 | 293 | 1.6 | 4.8 | 0.00 | 0.03 | 0.03 | 59 | 1017.1 |
| 20260508104303 | 19 | 282 | 3.2 | 8.0 | 0.00 | 0.03 | 0.03 | 59 | 1017.1 |
| 20260508102306 | 17 | 24 | 1.6 | 3.2 | 0.00 | 0.03 | 0.03 | 64 | 1017.1 |
| 20260508101804 | 17 | 94 | 1.6 | 1.6 | 0.00 | 0.03 | 0.03 | 66 | 1017.1 |
| 20260508101303 | 17 | 32 | 1.6 | 3.2 | 0.00 | 0.03 | 0.03 | 65 | 1017.1 |
| 20260508100803 | 17 | 35 | 0.0 | 3.2 | 0.00 | 0.03 | 0.03 | 63 | 1017.1 |
| 20260508095803 | 18 | 305 | 0.0 | 4.8 | 0.00 | 0.03 | 0.03 | 61 | 1017.1 |
| 20260508095306 | 18 | 343 | 1.6 | 11.3 | 0.00 | 0.03 | 0.03 | 62 | 1017.3 |
| 20260508093804 | 19 | 282 | 1.6 | 4.8 | 0.00 | 0.03 | 0.03 | 63 | 1017.3 |